Weather History for KRRT - January, 2013

Change the Weather History Date:

Tuesday, January 15, 2013

  Actual Average Record
Temperature  
Mean Temperature 11 °F -  
Max Temperature 21 °F 11 °F 40 °F (1973)
Min Temperature 1 °F -9 °F -42 °F (1972)
Degree Days  
Heating Degree Days 54    
Moisture  
Dew Point 5 °F    
Average Humidity 78    
Maximum Humidity 86    
Minimum Humidity 67    
Precipitation  
Precipitation 0.00 in - - ()
Sea Level Pressure  
Sea Level Pressure 29.82 in    
Wind  
Wind Speed 10 mph (SSW)    
Max Wind Speed 20 mph    
Max Gust Speed 24 mph    
Visibility 9 miles    
Events Snow    
Averages and records for this station are not official NWS values.
T = Trace of Precipitation, MM = Missing Value Source: NWS Daily Summary

Daily Weather History Graph

Daily Weather History Graph

Search for Another Location

Airport or City:

Trip Planner

Search our weather history database for the weather conditions in past years. The results will help you decide how hot, cold, wet, or windy it might be!

Date:

Astronomy

Jan. 15, 2013 Rise Set
Actual Time 8:09 AM CST 4:52 PM CST
Civil Twilight 7:33 AM CST 5:28 PM CST
Nautical Twilight 6:54 AM CST 6:08 PM CST
Astronomical Twilight 6:16 AM CST 6:45 PM CST
Moon 9:48 AM CST (1/15) 10:13 PM CST (1/15)
Length of Visible Light 9h 54m
Length of Day
8h 43m
Waxing Crescent, 19% of the Moon is Illuminated
Jan 15
Waxing Crescent
Jan 18
First Quarter
Jan 26
Full
Feb 3
Last Quarter
Feb 10
New

Hourly Weather History & Observations

Time (CST) Temp. Windchill Dew Point Humidity Pressure Visibility Wind Dir Wind Speed Gust Speed Precip Events Conditions
12:14 AM 1.4 °F -14.5 °F -4.0 °F 78% 30.10 in 10.0 mi SSW 10.4 mph - N/A   Mostly Cloudy
12:34 AM 1.4 °F -13.5 °F -2.2 °F 85% 30.09 in 10.0 mi SSW 9.2 mph - N/A   Overcast
12:54 AM 1.4 °F -13.5 °F -2.2 °F 85% 30.09 in 10.0 mi SW 9.2 mph - N/A   Overcast
1:14 AM 1.4 °F -13.5 °F -2.2 °F 85% 30.09 in 10.0 mi SSW 9.2 mph - N/A   Overcast
1:34 AM 1.4 °F -13.5 °F -2.2 °F 85% 30.08 in 10.0 mi SSW 9.2 mph - N/A   Overcast
1:54 AM 1.4 °F -12.5 °F -2.2 °F 85% 30.08 in 10.0 mi SSW 8.1 mph - N/A   Overcast
2:14 AM 1.4 °F -11.3 °F -2.2 °F 85% 30.08 in 10.0 mi SW 6.9 mph - N/A   Overcast
2:34 AM 1.4 °F -11.3 °F -2.2 °F 85% 30.07 in 10.0 mi SSW 6.9 mph - N/A   Overcast
2:54 AM 3.2 °F -10.3 °F -2.2 °F 78% 30.06 in 10.0 mi SW 8.1 mph - N/A   Overcast
3:14 AM 3.2 °F -9.1 °F -0.4 °F 85% 30.05 in 10.0 mi SSW 6.9 mph - N/A   Overcast
3:34 AM 3.2 °F -7.8 °F -0.4 °F 85% 30.04 in 10.0 mi SSW 5.8 mph - N/A   Overcast
3:54 AM 3.2 °F -4.2 °F -2.2 °F 78% 30.03 in 10.0 mi South 3.5 mph - N/A   Overcast
4:14 AM 3.2 °F -6.2 °F -0.4 °F 85% 30.03 in 10.0 mi SSW 4.6 mph - N/A   Overcast
4:54 AM 5.0 °F -5.6 °F -0.4 °F 78% 30.01 in 10.0 mi SSW 5.8 mph - N/A   Overcast
5:14 AM 5.0 °F -8.1 °F -0.4 °F 78% 30.00 in 10.0 mi SSW 8.1 mph - N/A   Overcast
5:34 AM 5.0 °F -6.9 °F -0.4 °F 78% 29.99 in 10.0 mi South 6.9 mph - N/A   Overcast
5:54 AM 5.0 °F -8.1 °F -0.4 °F 78% 29.98 in 10.0 mi South 8.1 mph - N/A   Overcast
6:14 AM 5.0 °F -9.1 °F -0.4 °F 78% 29.98 in 10.0 mi South 9.2 mph - N/A   Overcast
6:33 AM 5.0 °F -10.0 °F -0.4 °F 78% 29.97 in 10.0 mi South 10.4 mph - N/A   Mostly Cloudy
6:54 AM 5.0 °F -4.1 °F -0.4 °F 78% 29.96 in 10.0 mi South 4.6 mph - N/A   Overcast
7:14 AM 5.0 °F -5.6 °F -0.4 °F 78% 29.96 in 10.0 mi South 5.8 mph - N/A   Overcast
7:34 AM 6.8 °F -3.5 °F 1.4 °F 79% 29.95 in 10.0 mi South 5.8 mph - N/A   Overcast
7:54 AM 6.8 °F -2.0 °F 1.4 °F 79% 29.96 in 10.0 mi South 4.6 mph - N/A   Overcast
8:14 AM 6.8 °F - 1.4 °F 79% 29.96 in 10.0 mi Calm Calm - N/A   Overcast
8:34 AM 6.8 °F - 1.4 °F 79% 29.96 in 10.0 mi Calm Calm - N/A   Overcast
8:54 AM 8.6 °F -4.7 °F 1.4 °F 73% 29.96 in 10.0 mi West 9.2 mph - N/A   Overcast
9:14 AM 8.6 °F -1.3 °F 1.4 °F 73% 29.95 in 10.0 mi SW 5.8 mph - N/A   Overcast
9:34 AM 8.6 °F -3.7 °F 3.2 °F 79% 29.93 in 10.0 mi SSW 8.1 mph - N/A   Overcast
9:54 AM 8.6 °F -5.5 °F 3.2 °F 79% 29.93 in 10.0 mi SSW 10.4 mph - N/A   Mostly Cloudy
10:14 AM 10.4 °F -4.1 °F 3.2 °F 73% 29.92 in 10.0 mi SSW 11.5 mph - N/A   Scattered Clouds
10:34 AM 10.4 °F -3.3 °F 3.2 °F 73% 29.92 in 10.0 mi SSW 10.4 mph 17.3 mph N/A   Clear
10:54 AM 12.2 °F -3.7 °F 3.2 °F 67% 29.91 in 10.0 mi SSW 15.0 mph 19.6 mph N/A   Clear
11:14 AM 12.2 °F -3.7 °F 5.0 °F 73% 29.90 in 7.0 mi SSW 15.0 mph 20.7 mph N/A   Clear
11:34 AM 12.2 °F -5.8 °F 5.0 °F 73% 29.88 in 10.0 mi SW 19.6 mph 24.2 mph N/A   Clear
11:54 AM 12.2 °F -4.3 °F 6.8 °F 79% 29.86 in 7.0 mi SW 16.1 mph 21.9 mph N/A   Clear
12:14 PM 12.2 °F -2.5 °F 6.8 °F 79% 29.86 in 7.0 mi SSW 12.7 mph 21.9 mph N/A   Clear
12:34 PM 14.0 °F -2.5 °F 6.8 °F 73% 29.84 in 10.0 mi SSW 17.3 mph 24.2 mph N/A   Clear
12:54 PM 14.0 °F -0.2 °F 6.8 °F 73% 29.82 in 10.0 mi SSW 12.7 mph 23.0 mph N/A   Clear
1:34 PM 15.8 °F 0.3 °F 8.6 °F 73% 29.80 in 10.0 mi SSW 16.1 mph 19.6 mph N/A   Clear
1:54 PM 15.8 °F 1.4 °F 8.6 °F 73% 29.80 in 10.0 mi SW 13.8 mph 18.4 mph N/A   Clear
2:14 PM 17.6 °F 5.0 °F 8.6 °F 68% 29.79 in 10.0 mi SSW 11.5 mph 18.4 mph N/A   Clear
2:34 PM 17.6 °F 5.0 °F 8.6 °F 68% 29.79 in 10.0 mi SW 11.5 mph 16.1 mph N/A   Clear
2:54 PM 17.6 °F 3.7 °F 8.6 °F 68% 29.78 in 10.0 mi SW 13.8 mph - N/A   Clear
3:14 PM 17.6 °F 5.7 °F 8.6 °F 68% 29.77 in 10.0 mi SSW 10.4 mph - N/A   Clear
3:34 PM 15.8 °F 4.2 °F 8.6 °F 73% 29.76 in 10.0 mi SSW 9.2 mph - N/A   Clear
3:54 PM 17.6 °F 5.7 °F 8.6 °F 68% 29.74 in 10.0 mi South 10.4 mph 16.1 mph N/A   Clear
4:14 PM 15.8 °F 3.4 °F 8.6 °F 73% 29.73 in 10.0 mi SSW 10.4 mph 19.6 mph N/A   Clear
4:34 PM 15.8 °F 4.2 °F 10.4 °F 79% 29.72 in 10.0 mi South 9.2 mph 18.4 mph N/A   Clear
4:54 PM 15.8 °F 2.7 °F 10.4 °F 79% 29.70 in 10.0 mi South 11.5 mph 17.3 mph N/A   Clear
5:34 PM 15.8 °F 2.7 °F 8.6 °F 73% 29.66 in 10.0 mi SSW 11.5 mph 21.9 mph N/A   Clear
5:54 PM 15.8 °F 3.4 °F 8.6 °F 73% 29.65 in 10.0 mi SSW 10.4 mph 18.4 mph N/A   Clear
6:14 PM 15.8 °F 2.1 °F 8.6 °F 73% 29.63 in 10.0 mi SSW 12.7 mph 19.6 mph N/A   Clear
6:34 PM 15.8 °F 0.9 °F 8.6 °F 73% 29.62 in 10.0 mi SSW 15.0 mph 21.9 mph N/A   Clear
6:54 PM 15.8 °F 0.9 °F 10.4 °F 79% 29.61 in 10.0 mi SSW 15.0 mph 21.9 mph N/A   Clear
7:14 PM 15.8 °F 2.7 °F 10.4 °F 79% 29.60 in 10.0 mi SSW 11.5 mph 19.6 mph N/A   Clear
7:34 PM 17.6 °F 4.3 °F 10.4 °F 73% 29.59 in 10.0 mi SSW 12.7 mph 20.7 mph N/A   Scattered Clouds
7:54 PM 17.6 °F 4.3 °F 10.4 °F 73% 29.57 in 10.0 mi SSW 12.7 mph 23.0 mph N/A   Mostly Cloudy
8:14 PM 17.6 °F 2.7 °F 12.2 °F 79% 29.54 in 10.0 mi SSW 16.1 mph 21.9 mph N/A   Overcast
8:34 PM 17.6 °F 5.0 °F 12.2 °F 79% 29.53 in 10.0 mi SSW 11.5 mph 18.4 mph N/A   Overcast
8:54 PM 19.4 °F 7.9 °F 12.2 °F 74% 29.50 in 5.0 mi SSW 10.4 mph 20.7 mph N/A Snow Light Snow
9:14 PM 19.4 °F 6.6 °F 14.0 °F 80% 29.48 in 2.5 mi SSW 12.7 mph 19.6 mph N/A Snow Light Snow
9:34 PM 19.4 °F 5.5 °F 15.8 °F 86% 29.45 in 2.0 mi SSW 15.0 mph 20.7 mph N/A Snow Light Snow
9:54 PM 19.4 °F 6.0 °F 15.8 °F 86% 29.45 in 1.5 mi SSW 13.8 mph 23.0 mph N/A Snow Light Snow
10:14 PM 19.4 °F 5.5 °F 15.8 °F 86% 29.44 in 1.2 mi SSW 15.0 mph 23.0 mph N/A Snow Light Snow
10:34 PM 19.4 °F 4.5 °F 15.8 °F 86% 29.43 in 2.5 mi SW 17.3 mph 24.2 mph N/A Snow Light Snow
10:54 PM 19.4 °F 4.5 °F 15.8 °F 86% 29.43 in 2.5 mi SW 17.3 mph 24.2 mph N/A Snow Light Snow
11:14 PM 21.2 °F 7.8 °F 17.6 °F 86% 29.41 in 3.0 mi SSW 15.0 mph 20.7 mph N/A   Overcast
11:34 PM 21.2 °F 10.1 °F 17.6 °F 86% 29.42 in 4.0 mi SW 10.4 mph 13.8 mph N/A   Overcast